CAPE
833 1069 2303 2352 2703 2914 2819 2357 2234 2375 1880 1646 1916 1816 1818 2437 2310 2241 2328 2439 2427 2507 2398 2179 2348 2439 2309 2288 2393 2483 2324 2261 2378 2324 2225 1994 2133 2264 2307 1748 831 237 1797
799 919 2695 2721 3004 3215 3213 2715 2434 2324 2109 1812 2165 1642 2219 2680 2207 1558 1830 2364 2345 2806 2139 1775 1683 1990 2107 2260 2394 2208 2185 2281 2577 1860 2030 1958 1981 2290 2094 1470 335 1147 1996
772 954 1574 3078 3365 3411 3345 2706 2110 1794 1911 1749 1856 1713 2623 2331 1743 1072 1805 2234 1804 2524 1584 1797 1860 1871 1844 2144 2237 2186 2179 2283 2066 1940 1840 1105 1837 1854 1692 826 1110 1862 2132
669 770 1387 3198 3471 3591 3367 2783 2485 1791 1909 1886 2049 2361 2125 2453 1709 1197 1653 2061 1740 1744 1128 1504 1666 1809 1767 1889 1994 2076 2097 2074 1328 1065 755 682 1062 2099 1797 2120 2101 2198 2136
506 933 1929 3235 3399 3415 3134 2866 2557 2425 2070 1927 2445 2212 1803 2203 2100 1114 1893 1892 1554 1404 271 810 915 1552 1808 1976 1924 1597 1648 1260 295 83 749 627 750 2033 2122 2070 1719 1769 2151
609 1093 2405 3108 3245 3213 3086 2855 2825 2800 2106 2395 2496 2365 1969 1960 2052 1145 1851 1918 1676 1576 221 43 917 1237 1574 1636 1614 1648 1455 1143 979 374 437 1610 1182 1509 2031 2124 1969 1747 2112
1040 985 1529 2747 3000 3007 2982 2960 2915 2374 2424 2429 2452 2046 2042 1985 1843 1166 1647 1536 1194 1126 833 45 385 756 1040 1181 1171 1122 1106 1051 1489 536 1064 1401 1804 2154 2086 2039 1735 1709 2004
1076 588 1221 2338 2660 2789 2599 2488 2716 2603 2457 2520 2336 2042 1972 1984 1841 1844 1590 1743 1628 1062 746 639 551 826 638 542 612 1028 1301 1233 1106 381 1202 1292 2093 2367 1507 2043 1950 1701 2033
726 879 956 1226 1869 2121 2610 2361 2371 2220 1934 1734 2300 2032 2075 1636 1571 1378 1426 1292 1239 909 775 532 398 432 375 328 575 388 329 255 263 531 879 1212 2386 2180 1365 1922 2021 1998 2053
822 725 832 922 1492 1910 1768 1767 1558 1379 1623 2132 1972 1784 1550 1570 1206 1118 1216 1012 850 944 846 660 386 348 253 434 431 541 263 186 761 221 273 1041 2107 2042 1562 1254 1988 2059 2073
479 299 305 513 1315 1784 1750 1822 2038 1859 1900 2036 1961 1515 1501 816 446 840 256 131 191 302 693 290 434 674 684 568 659 370 291 111 723 401 415 908 1857 1643 1552 1735 1700 1885 2007
244 113 143 446 434 691 304 1531 1716 1741 1720 1721 1704 2063 481 147 279 40 57 202 195 151 317 646 322 569 1027 681 652 661 417 190 444 323 317 1028 1976 1345 1469 1666 1677 1847 1929
16 0 224 514 585 290 755 1003 728 910 1575 1329 1840 1542 834 544 771 0 5 252 571 231 157 494 526 360 517 379 553 714 518 86 458 130 259 683 1055 1011 1510 1740 1662 1572 1579
15 0 0 410 571 300 923 603 590 1011 1038 1023 1027 1240 1400 907 677 1247 596 179 314 461 369 865 208 779 297 87 979 458 775 328 74 288 276 838 916 408 957 1487 1684 1670 1569
4 6 47 720 827 394 465 415 685 1383 919 733 1210 1245 1351 1583 753 1255 1275 705 940 401 48 546 1282 908 585 1608 1003 299 176 386 532 216 137 779 1150 1619 1091 1554 1318 1479 1492
21 6 163 144 1699 715 909 1158 1659 1031 913 2240 851 1547 1589 1758 1134 638 1286 1465 1409 1056 976 656 1240 957 1078 1131 814 495 530 616 794 566 94 273 1741 1732 1592 1056 1300 1502 1573
129 128 46 387 636 595 2007 1738 1359 1994 1049 1345 388 1618 1051 1032 1066 276 525 1125 1721 1078 939 1095 1372 531 1051 1020 666 1201 903 654 863 544 443 108 956 1545 1073 1059 1190 1704 1625
493 362 440 43 218 384 820 1337 985 970 743 828 1851 1286 394 368 1128 596 847 1034 1202 1537 983 1189 1573 854 910 1012 685 1223 1694 1263 998 1025 561 516 132 102 907 1233 1278 1429 1561
891 797 766 314 359 440 1286 1123 939 1319 1576 2538 2135 1432 576 779 1585 681 730 896 865 1252 1421 1204 1556 1499 1185 606 689 687 1390 1245 1174 1309 799 490 279 105 1 599 1672 1679 1025
1040 918 879 1200 592 669 392 187 216 533 1531 1900 1711 1533 1787 733 675 1332 1368 1162 892 1271 1616 1360 1586 1945 1471 963 948 484 483 1932 1409 1453 1404 829 397 453 361 316 688 1399 1727
1164 1132 899 1027 316 163 69 67 60 482 1497 1794 1880 2204 1219 573 704 1573 1559 1231 1064 1422 1288 1559 1607 2085 1721 1360 1203 351 959 1099 1290 1185 1306 1193 1351 613 633 942 500 485 1174
1351 915 815 1039 196 52 17 13 13 200 1281 1300 598 1386 1056 1319 1047 1285 2021 1342 1083 1002 1718 1597 1937 1978 1561 1041 1112 885 225 391 829 1259 1310 1108 1082 793 657 627 702 610 565
1717 1024 737 1381 141 27 28 38 25 23 841 596 630 1055 955 1646 1690 1635 1909 2024 908 1196 731 1825 1836 2167 750 1245 1594 519 477 232 607 984 1081 1340 1792 1259 1280 932 763 847 1211
2039 1614 1091 1236 473 158 87 52 83 33 579 1404 928 1336 1613 1535 1945 1847 2060 1236 990 2112 949 1566 1771 1881 1802 891 1504 2149 1444 459 647 649 943 895 1511 1391 1182 1123 760 861 980
2134 1772 1921 1371 671 325 210 219 549 683 881 518 691 1236 1622 1633 1469 1414 1395 2010 2089 1469 1669 1832 1575 1654 2147 1418 1323 1608 1783 1942 1251 645 470 1407 1312 1221 1448 1198 1039 892 697
1747 1679 1599 1565 1160 874 490 576 1019 1322 476 300 800 1042 1360 1460 1911 1332 1234 1379 1019 2331 1623 1696 1502 1849 2050 2110 1766 1934 1804 1478 938 878 1009 1106 968 1540 1456 1268 1069 919 939
CIN
-5 -24 0 0 0 0 0 0 0 0 -1 -6 -1 0 0 0 0 0 0 0 0 0 0 0 -1 -1 0 0 0 0 0 0 0 0 0 0 0 0 0 -2 -15 -92 0
-32 -47 0 0 0 0 0 0 0 0 0 0 0 0 0 0 0 0 0 0 0 0 0 0 -1 0 0 0 0 0 0 -2 0 -1 0 0 0 0 0 -4 -57 -3 0
-45 -38 -2 0 0 0 0 0 0 0 0 0 0 0 0 0 0 -14 0 0 0 0 0 0 0 0 0 0 0 0 0 0 -1 -2 -1 -6 0 0 -2 -23 -4 0 0
-46 -20 -10 0 0 0 0 0 0 0 0 0 0 0 0 0 0 -3 0 0 0 0 -2 0 0 0 0 0 0 -1 -2 -1 -5 -19 -33 -7 -1 0 0 0 0 0 0
-22 -19 -1 0 0 0 0 0 0 0 0 0 0 0 0 0 0 -4 0 0 -1 -1 -32 0 0 -1 0 0 0 -13 -9 -2 -116 -166 -77 -4 -22 0 0 0 0 0 0
-16 -27 0 0 0 0 0 0 0 0 0 0 0 0 0 0 0 -4 0 0 0 0 -40 -48 0 -1 0 -1 -8 -18 -28 -16 -18 -19 -89 -10 -28 0 0 0 0 0 0
-10 -30 -5 0 0 0 0 0 0 0 0 0 0 0 0 0 0 -2 0 0 0 0 -1 -55 -5 0 -2 0 -10 -29 -33 -23 -14 -12 -33 -35 -14 0 0 0 0 -1 0
-3 -30 -7 0 0 0 0 0 0 0 0 0 0 0 -4 -3 0 0 0 0 0 0 0 -1 0 0 -5 -8 -13 -17 -27 -30 -10 -73 -29 -15 -5 0 0 0 0 0 0
-2 -15 -12 0 0 0 0 0 0 0 0 0 0 0 -1 -13 -22 -12 -1 -1 0 0 0 -2 -7 -8 -12 -17 -9 -25 -31 -61 -84 -91 -33 -22 -1 0 0 0 0 0 0
-1 -21 -5 -4 0 0 0 0 0 -1 0 0 0 0 -1 -2 -15 -16 -9 -15 -12 -4 -2 -5 -15 -17 -28 -18 -17 -21 -31 -35 -47 -20 -8 -19 -4 0 0 -1 0 0 0
-7 -57 -42 -24 0 -1 -1 0 0 0 0 0 0 0 0 -5 -17 -9 -18 -34 -36 -32 -20 -32 -26 -21 -23 -26 -33 -33 -33 -35 -37 -60 -61 -26 -8 0 0 0 0 0 0
-26 -75 -74 -16 -17 -5 -21 -4 0 0 0 -1 -2 0 -18 -26 -6 -37 -51 -23 -23 -35 -26 -19 -32 -29 -6 -6 -26 -34 -53 -39 -17 -79 -95 -16 -2 -1 0 0 0 0 0
-9 0 -47 -11 -12 -10 -15 -21 -6 -2 -3 -3 -2 -4 -6 -8 -6 0 -20 -4 -12 -27 -25 -21 -24 -34 -44 -18 -40 -53 -46 -49 -17 -34 -43 -17 -5 0 0 0 0 0 0
-34 0 0 -19 -29 -4 -12 -23 -12 -6 -29 -10 -33 -17 -9 -14 -11 -3 -18 -59 -38 -17 -24 -23 -75 -33 -30 -131 -38 -38 -32 -14 -57 -54 -37 -21 -9 -14 -8 0 0 0 0
-1 0 -47 -32 -38 -59 -72 -56 -20 -11 -13 -16 -28 -37 -13 -26 -35 -21 -12 -19 -13 -19 -37 -21 -37 -36 -51 -16 -14 -16 -107 -35 -30 -79 -65 -22 -12 0 -3 0 0 0 0
-44 -23 -11 -45 -10 -12 -14 -17 -32 -39 -19 -28 -87 -32 -13 -16 -28 -46 -8 -11 -16 -15 -36 -38 -40 -47 -34 -37 -23 -38 -75 -48 -26 -34 -25 -42 -2 0 0 -1 0 0 0
-28 -18 -41 -13 -27 -49 -3 -15 -24 -6 -5 -44 -133 -14 -49 -42 -27 -30 -45 -27 -17 -40 -61 -52 -51 -103 -39 -30 -32 -10 -37 -38 -42 -49 -47 -72 -8 -4 -4 -3 0 0 0
-6 -29 -75 -43 -45 -44 -15 -39 -34 -35 -26 -29 -49 -52 -111 -81 -23 -28 -15 -27 -30 -26 -30 -15 -48 -62 -45 -27 -35 -29 -23 -20 -37 -30 -31 -43 -14 -43 -8 0 -2 -1 -1
-28 -60 -94 -103 -70 -48 -62 -50 -41 -39 -18 -19 -57 -78 -100 -69 -14 -36 -28 -32 -43 -45 -17 -20 -33 -32 -30 -62 -47 -56 -28 -37 -32 -10 -25 -30 -11 -25 -18 -36 0 -1 -17
-26 -47 -77 -97 -163 -100 -161 -134 -123 -78 -14 -40 -30 -47 -43 -119 -86 -14 -17 -28 -46 -42 -11 -20 -11 -15 -24 -39 -19 -28 -37 -16 -31 -20 -13 -27 -10 -23 -11 -49 -53 -9 -2
-34 -32 -45 -65 -142 -156 -197 -130 -153 -37 -34 -9 -43 -27 -75 -143 -101 -9 -14 -27 -47 -14 -32 -7 -12 -4 -12 -33 -10 -58 -31 -24 -25 -26 -17 -13 -10 -30 -12 -21 -53 -55 -16
-29 -86 -74 -21 -110 -131 -21 -13 -13 -60 -6 -33 -88 -42 -91 -47 -65 -19 -2 -23 -35 -40 -9 -14 -8 -6 -21 -43 -25 -26 -33 -15 -34 -29 -26 -39 -12 -16 -30 -7 -9 -26 -48
-17 -31 -9 -17 -31 -43 -45 0 -11 -87 -14 -32 -5 -55 -97 -17 -18 -15 -4 -6 -39 -31 -59 -12 -9 -5 -52 -31 -21 -61 -43 -36 -42 -32 -31 -36 -23 -19 -21 -16 -20 -12 -20
0 -3 -15 -3 -29 -6 -6 -9 -13 -10 -1 -13 -48 -39 -18 -28 -7 -5 -2 -18 -25 -7 -41 -16 -8 -15 -13 -42 -15 -14 -26 -91 -38 -22 -41 -37 -34 -29 -34 -31 -27 -22 -22
-12 -10 0 -1 -16 -8 -11 -3 0 0 -14 -67 -66 -27 -16 -17 -16 -8 -19 -3 -1 -28 -17 -12 -15 -14 -15 -34 -34 -32 -20 -13 -29 -63 -42 -17 -36 -29 -16 -40 -43 -37 -47
-13 -21 -2 0 0 0 -1 0 0 0 -27 -54 -30 -25 -20 -20 -11 -40 -30 -26 -32 -3 -16 -18 -21 -14 -15 -10 -47 -13 -27 -29 -48 -60 -31 -40 -51 -37 -31 -72 -68 -61 -62
Wind_Speed
12 11 8 9 12 14 13 14 13 13 11 9 8 8 7 9 9 9 7 9 13 12 13 10 7 6 6 7 8 11 13 14 14 13 11 10 11 10 9 14 18 14 12
17 13 11 10 13 16 15 14 13 14 13 8 8 8 7 8 7 6 6 6 5 7 8 11 6 8 8 9 11 11 11 15 15 15 13 13 14 14 18 21 19 14 16
18 14 13 11 14 19 18 15 13 14 12 9 8 8 8 6 6 5 4 5 7 3 7 6 6 7 8 10 11 12 12 11 14 15 17 7 10 15 18 20 20 18 21
17 15 15 16 17 18 19 15 13 12 11 10 8 7 9 7 8 6 4 2 2 2 3 3 4 4 8 9 9 10 11 13 14 12 5 7 11 14 16 19 18 19 21
17 17 16 18 19 19 19 16 12 12 12 10 8 9 8 7 8 7 3 5 6 3 4 5 2 3 8 8 5 7 9 13 14 nan 7 2 11 15 15 18 18 18 20
20 18 15 19 20 19 19 17 15 13 12 11 8 10 10 8 8 7 4 6 7 5 5 nan 5 4 6 8 5 1 5 7 17 8 5 16 16 16 14 21 21 22 20
19 18 15 17 19 19 18 16 13 13 13 11 11 12 11 8 7 6 5 5 3 2 6 nan 4 5 6 6 2 2 2 2 2 4 12 11 15 15 20 22 19 22 20
19 19 14 16 18 18 16 15 12 11 12 10 10 13 12 10 8 7 3 3 4 2 2 4 4 4 5 3 1 1 6 3 5 4 19 15 16 15 21 22 20 23 21
19 22 14 14 16 17 15 14 13 13 13 11 12 10 10 9 11 6 3 2 2 2 2 2 1 2 6 3 6 2 2 3 9 17 11 11 19 17 17 21 21 21 21
24 22 16 15 13 13 12 14 15 12 9 13 17 11 11 8 7 5 1 4 1 3 5 5 2 3 9 6 7 6 4 7 7 16 28 5 16 21 14 18 21 21 20
22 20 19 18 16 12 13 10 12 9 11 17 13 16 4 12 4 5 4 6 5 5 7 10 7 9 12 7 9 8 8 8 9 10 6 11 15 20 13 17 20 20 17
24 18 17 17 17 14 12 12 8 5 7 6 9 10 14 12 8 nan nan 3 4 7 8 12 12 11 9 6 5 8 4 6 5 7 7 10 14 21 18 21 22 13 12
nan nan 19 17 14 12 12 11 7 6 6 4 4 3 8 9 1 nan nan 1 1 6 4 9 7 5 11 6 3 6 8 nan 7 12 10 15 17 15 18 18 17 7 13
nan nan nan 18 10 10 12 11 8 10 9 2 2 4 3 4 7 2 4 4 5 8 2 2 3 5 19 nan 4 8 13 7 nan 8 13 16 17 16 17 12 11 11 7
nan nan nan 19 13 9 12 7 11 9 8 3 5 1 2 0 3 7 4 2 2 3 nan 2 10 7 6 8 7 20 14 7 6 8 10 22 16 17 14 4 4 7 4
nan nan 23 18 14 14 14 12 15 14 10 15 17 11 5 8 6 8 5 2 2 2 6 3 6 6 8 1 5 9 13 7 7 6 nan 15 18 17 13 7 7 3 4
22 23 nan 17 18 13 11 16 11 20 14 19 19 7 12 14 9 8 7 6 7 9 9 5 7 4 4 3 6 8 5 7 7 7 9 11 13 18 17 11 9 5 5
23 25 24 nan 23 17 13 18 19 22 15 16 16 13 10 9 8 8 9 9 6 6 7 5 8 6 5 4 5 6 2 2 5 8 10 9 11 12 13 15 13 10 8
23 24 25 22 20 17 24 24 17 20 19 20 16 15 11 8 9 11 4 6 2 2 3 2 4 6 6 6 3 9 2 2 7 5 8 10 12 14 nan 16 14 13 13
28 25 24 23 24 16 25 28 22 13 23 22 16 12 11 11 8 3 0 3 2 2 5 6 3 5 5 6 9 9 6 4 0 4 7 6 9 10 9 11 10 8 14
31 31 27 24 17 20 nan nan nan 7 22 19 15 11 12 9 6 3 3 1 1 3 5 3 2 3 2 4 11 6 9 10 3 4 5 6 6 7 7 4 7 7 8
30 30 30 27 19 nan nan nan nan 8 12 27 20 8 12 8 2 1 3 5 4 2 1 3 4 4 5 2 7 5 7 7 5 4 3 4 6 6 7 5 8 9 7
27 31 29 28 25 nan nan nan nan nan 14 18 6 8 13 6 3 4 3 7 2 7 2 3 5 5 0 3 3 4 4 7 9 6 3 4 2 4 6 3 7 8 5
28 27 24 25 22 19 nan nan nan nan 9 7 5 8 9 3 4 5 7 11 3 9 8 4 0 4 1 2 4 6 6 4 8 10 10 1 4 3 5 4 6 7 5
28 24 23 22 20 15 9 8 5 9 4 12 8 5 6 6 5 7 7 1 6 9 10 9 6 1 3 4 1 1 5 6 6 9 10 7 5 5 3 2 5 5 5
32 26 24 20 17 14 14 13 10 9 4 7 5 6 8 8 10 6 5 6 3 10 13 13 9 3 4 9 7 3 1 2 4 6 8 8 6 8 3 2 3 1 2
Wind_Direction
303 304 323 329 327 325 324 323 329 327 318 318 312 303 302 299 296 297 303 299 274 264 258 248 257 267 274 273 270 261 276 272 269 267 261 255 245 237 261 264 261 256 258
294 306 308 320 324 322 315 321 327 324 324 316 324 318 309 291 294 303 325 331 314 273 254 239 241 255 267 284 288 300 288 285 293 282 272 248 230 239 248 251 258 264 256
295 295 298 309 321 319 313 317 322 326 317 313 319 328 302 287 272 277 312 338 345 283 268 239 242 258 275 279 286 288 297 299 300 305 307 274 258 244 254 260 263 258 253
297 297 298 301 311 313 305 311 317 322 319 309 309 313 293 297 288 305 306 296 359 291 253 241 237 274 277 273 276 286 294 285 270 258 186 283 260 261 258 258 255 253 255
304 286 292 297 303 305 307 307 310 315 312 308 298 283 287 291 291 305 317 265 298 311 253 240 235 319 305 281 272 285 281 299 288 nan 224 25 265 267 266 259 262 263 255
284 284 290 297 305 305 303 305 308 308 305 293 281 266 271 285 290 293 309 286 299 282 284 nan 235 285 304 301 267 254 271 278 320 14 47 282 270 281 275 261 261 264 258
290 293 297 301 302 306 306 307 308 307 313 309 287 274 281 275 287 292 305 298 261 299 316 nan 272 291 311 313 288 123 77 249 210 260 272 271 278 283 271 266 267 268 257
311 306 311 310 309 310 311 312 315 324 324 324 324 310 292 286 282 277 291 292 277 245 243 303 306 315 322 321 281 86 119 163 251 4 297 292 291 283 273 263 258 267 264
324 301 318 318 319 320 314 314 309 318 320 316 329 328 298 267 273 271 267 288 281 14 343 295 320 38 345 348 358 37 98 61 310 222 225 281 302 297 280 256 253 263 265
315 311 317 320 320 317 313 320 321 325 339 328 334 330 290 220 258 247 292 310 318 32 31 328 197 46 15 121 57 52 48 52 296 293 244 304 301 303 295 255 251 255 260
311 310 323 321 323 327 308 306 304 318 327 358 21 31 98 161 126 337 288 305 347 25 32 29 72 84 71 82 24 27 24 60 330 285 282 348 306 308 302 264 256 253 261
311 319 322 325 326 329 320 295 300 313 315 13 21 39 93 103 141 nan nan 320 352 27 47 52 59 65 75 71 26 29 36 59 2 321 291 327 331 325 309 273 251 239 263
nan nan 328 321 324 326 296 299 292 292 294 38 32 54 101 137 183 nan nan 49 309 20 54 37 43 49 209 193 61 51 26 nan 19 342 326 343 358 345 315 283 253 224 230
nan nan nan 315 318 330 289 305 307 296 288 315 356 332 70 79 112 167 261 262 257 256 131 118 327 276 311 nan 144 197 120 48 nan 342 348 341 324 333 333 306 198 221 247
nan nan nan 319 341 345 295 294 292 280 289 291 242 321 65 201 158 160 185 314 280 296 nan 59 315 316 318 328 254 277 99 101 23 345 11 351 343 353 354 279 326 167 276
nan nan 326 327 310 328 338 274 261 270 249 238 220 203 170 210 220 184 154 160 318 233 182 298 336 339 321 354 82 337 23 68 63 357 nan 18 4 13 18 39 86 81 325
342 331 nan 321 314 307 307 282 258 240 247 250 263 179 233 212 219 195 142 100 40 66 99 327 336 307 44 58 81 103 50 12 24 27 43 43 43 31 45 60 85 50 15
352 332 303 nan 308 308 314 290 272 219 226 248 254 261 271 266 235 234 115 84 58 53 33 359 358 49 12 96 55 61 27 48 37 48 67 58 50 50 56 54 52 55 27
328 322 315 304 301 314 291 291 284 202 213 232 242 242 263 246 252 282 72 84 88 95 13 283 346 358 36 36 72 132 80 317 55 69 68 71 39 42 nan 50 46 44 40
323 326 319 313 304 289 270 295 278 210 209 232 227 232 257 251 259 270 146 98 321 10 333 293 314 357 29 20 342 120 130 270 359 99 87 96 59 59 33 29 50 55 46
329 327 337 331 324 322 nan nan nan 266 209 226 235 256 268 273 269 231 252 238 234 332 10 312 251 353 60 54 338 2 328 309 218 106 68 100 101 91 61 346 19 52 54
335 332 336 335 320 nan nan nan nan 271 202 220 207 239 273 282 232 182 237 195 182 272 327 359 343 291 252 342 351 320 311 314 334 87 60 80 63 69 90 34 15 23 34
341 337 338 332 330 nan nan nan nan nan 173 234 180 260 266 271 273 291 283 297 177 248 255 285 321 68 269 222 277 330 94 58 38 94 77 150 107 127 107 47 40 46 47
341 332 328 325 327 326 nan nan nan nan 159 228 260 242 237 235 259 255 323 258 261 247 234 219 279 85 281 54 127 83 81 19 29 67 66 141 199 111 83 101 83 92 33
324 323 322 326 332 344 333 349 3 52 114 227 198 276 280 302 313 247 300 293 245 244 234 179 169 126 165 208 171 165 122 68 42 18 28 11 198 117 118 335 45 58 56
316 320 319 328 337 340 341 360 16 33 337 286 332 305 322 315 295 289 316 297 245 215 210 189 154 203 172 183 213 173 174 23 45 11 25 20 61 131 140 65 77 82 262